Find Starlink 30288

NORAD ID: 57698 Int'l Des: 2023-129 Owner: SPXS Country: US Constellation: starlink operational
LEOCIRCULAR

实时位置

正在加载3D地球...

关于 Starlink 30288

正在加载描述...

即将过境

Passes for default location (London). Set your location on the main map for personalized predictions.

高度历史

Loading altitude history...

两行轨道根数

1 57698U 23129A 26127.44274024 -.00000217 00000-0 16577-5 0 9999
2 57698 43.0051 146.4689 0001527 261.8246 98.2432 15.27568923149664
Epoch: May 7, 2026 • Age: 12 hours

当前状态

高度 482.6 km
速度 7.63 km/s
星下点 16.47°N, 105.26°E
发射日期 Aug 27, 2023
运行时间 2.6 years
类型 internet

技术详情

分类 Payload
质量 730.00 kg
干质量 700.00 kg
总质量 730.00 kg
长度 0.30 m
直径 4.10 m
跨度 29.00 m
形状 Box + pan
制造商 SPXS
平台类型 Starlink V2M
阶段状态 In Orbit
所有者/国家 SPXS/US

Most Searched